DW9174 Weather Reports


time (UTC)temp
F
wind
direction
speed
knots
gust
knots
rain 1hr
in
rain 24hr
in
rain mn
in
humidity
%
barometer
mb
20260504120126 48 170 0.0 0.9 0.00 0.00 0.00 82 1014.7
20260504081749 43 265 0.0 0.0 0.00 0.00 0.00 89 1015.5
20260504080729 43 225 0.0 0.0 0.00 0.00 0.00 89 1015.3
20260504070332 41 225 0.0 0.0 0.00 0.00 0.00 88 1015.4
20260504044854 42 225 0.0 0.0 0.00 0.00 0.00 76 1016.0
20260504043900 43 144 0.0 0.0 0.00 0.00 0.00 73 1016.0
20260504042920 42 144 0.0 0.0 0.00 0.00 0.00 75 1015.9
20260504041923 43 144 0.0 0.0 0.00 0.00 0.00 76 1015.8
20260504040850 43 125 0.0 0.0 0.00 0.00 0.00 74 1015.8
20260504035915 43 116 0.0 0.0 0.00 0.00 0.00 73 1015.8
20260504034930 43 114 0.0 0.9 0.00 0.00 0.00 74 1015.6
20260504033930 43 162 0.0 0.0 0.00 0.00 0.00 74 1015.6
20260504032859 43 162 0.0 0.9 0.00 0.00 0.00 76 1015.6
20260504031923 43 232 0.0 0.0 0.00 0.00 0.00 77 1015.5
20260504030944 43 262 0.0 0.0 0.00 0.00 0.00 76 1015.5
20260504025943 43 262 0.0 0.0 0.00 0.00 0.00 75 1015.5
20260504024940 44 262 0.0 0.0 0.00 0.00 0.00 74 1015.3
20260504024004 45 265 0.0 0.0 0.00 0.00 0.00 72 1015.3
20260504021856 46 277 0.0 0.9 0.00 0.00 0.00 68 1015.1
20260504020838 47 265 0.0 0.0 0.00 0.00 0.00 66 1015.2
20260504015827 48 265 0.0 0.0 0.00 0.00 0.00 62 1015.0
20260504014818 49 259 0.0 0.0 0.00 0.00 0.00 61 1014.9
20260504012727 48 256 0.0 3.5 0.00 0.00 0.00 61 1014.9
20260504011703 49 273 0.0 0.9 0.00 0.00 0.00 62 1014.8
20260504010714 49 265 0.0 0.0 0.00 0.00 0.00 61 1014.7
20260504005727 48 265 0.0 0.9 0.00 0.00 0.00 62 1014.8
20260504004713 49 281 0.0 0.9 0.00 0.00 0.00 60 1014.7
20260504002541 53 260 0.0 0.0 0.00 0.00 0.00 54 1014.5
20260504001522 55 286 0.0 0.0 0.00 0.00 0.00 49 1014.5
20260504000533 57 296 0.0 0.0 0.00 0.00 0.00 42 1014.5
20260503235521 57 221 0.0 1.7 0.00 0.00 0.00 41 1014.4
20260503233445 60 246 0.0 2.6 0.00 0.00 0.00 37 1014.2
20260503232424 61 281 1.7 6.1 0.00 0.00 0.00 34 1014.2
20260503231359 61 264 0.9 6.1 0.00 0.00 0.00 33 1014.1
20260503230353 61 268 2.6 4.3 0.00 0.00 0.00 34 1014.1
20260503225328 62 275 1.7 5.2 0.00 0.00 0.00 34 1014.0
20260503224309 62 271 1.7 5.2 0.00 0.00 0.00 34 1014.0
20260503222219 62 312 1.7 8.7 0.00 0.00 0.00 33 1014.1
20260503221237 62 259 3.5 8.7 0.00 0.00 0.00 32 1014.2
20260503220234 63 324 0.9 7.8 0.00 0.00 0.00 34 1014.2
20260503215225 62 282 1.7 7.8 0.00 0.00 0.00 34 1014.1
20260503214218 62 320 3.5 7.8 0.00 0.00 0.00 33 1014.1
20260503213218 62 300 2.6 7.8 0.00 0.00 0.00 33 1014.1
20260503212212 63 294 1.7 4.3 0.00 0.00 0.00 33 1014.3
20260503211202 63 302 1.7 6.1 0.00 0.00 0.00 36 1014.3
20260503210159 62 240 3.5 9.6 0.00 0.00 0.00 36 1014.2
20260503205202 63 315 1.7 7.0 0.00 0.00 0.00 36 1014.3
20260503204149 63 290 0.9 3.5 0.00 0.00 0.00 34 1014.3
20260503203138 62 320 3.5 9.6 0.00 0.00 0.00 33 1014.4
20260503202125 62 286 1.7 7.0 0.00 0.00 0.00 35 1014.4
20260503201147 61 315 2.6 7.0 0.00 0.00 0.00 35 1014.5
20260503200202 61 264 2.6 7.0 0.00 0.00 0.00 34 1014.7
20260503195156 61 234 2.6 6.1 0.00 0.00 0.00 36 1015.0
20260503193026 61 350 3.5 12.2 0.00 0.00 0.00 37 1015.3
20260503190925 60 227 2.6 13.9 0.00 0.00 0.00 40 1015.5
20260503185941 59 275 3.5 13.9 0.00 0.00 0.00 38 1015.7
20260503184956 60 313 4.3 9.6 0.00 0.00 0.00 37 1015.8
20260503182916 59 332 3.5 8.7 0.00 0.00 0.00 41 1015.9
20260503181910 59 221 2.6 8.7 0.00 0.00 0.00 40 1015.9
20260503180925 58 287 3.5 8.7 0.00 0.00 0.00 38 1016.1
20260503174820 56 248 3.5 13.9 0.00 0.00 0.00 42 1016.2
20260503173802 57 344 4.3 10.4 0.00 0.00 0.00 39 1016.4
20260503172756 57 317 2.6 10.4 0.00 0.00 0.00 41 1016.4
20260503171748 56 167 1.7 9.6 0.00 0.00 0.00 47 1016.5
20260503170736 56 329 4.3 9.6 0.00 0.00 0.00 47 1016.6
20260503150531 52 355 4.3 12.2 0.00 0.00 0.00 51 1017.8